QPF
0.00 0.00 0.00 0.00 0.00 0.00 0.00 0.00 0.00 0.00 0.00 0.00 0.00 0.00 0.00 0.00 0.00 0.00 0.00 0.00 0.00 0.00 0.00 0.00 0.00 0.00 0.00 0.00 0.00 0.00 0.00 0.00 0.00 0.00 0.00 0.00 0.00 0.00 0.00 0.00 0.00 0.00 0.00
0.00 0.00 0.00 0.00 0.00 0.00 0.00 0.00 0.00 0.00 0.00 0.00 0.00 0.00 0.00 0.00 0.00 0.00 0.00 0.00 0.00 0.00 0.00 0.00 0.00 0.00 0.00 0.00 0.00 0.00 0.00 0.00 0.00 0.00 0.00 0.00 0.00 0.00 0.00 0.00 0.00 0.00 0.00
0.00 0.00 0.00 0.00 0.00 0.00 0.00 0.00 0.00 0.00 0.00 0.00 0.00 0.00 0.00 0.00 0.00 0.00 0.00 0.00 0.00 0.00 0.00 0.00 0.00 0.00 0.00 0.00 0.00 0.00 0.00 0.00 0.00 0.00 0.00 0.00 0.00 0.00 0.00 0.00 0.00 0.00 0.00
0.00 0.00 0.00 0.00 0.00 0.00 0.00 0.00 0.00 0.00 0.00 0.00 0.00 0.00 0.00 0.00 0.00 0.00 0.00 0.00 0.00 0.00 0.00 0.00 0.00 0.00 0.00 0.00 0.00 0.00 0.00 0.00 0.00 0.00 0.00 0.00 0.00 0.00 0.00 0.00 0.00 0.00 0.00
0.00 0.00 0.00 0.00 0.00 0.00 0.00 0.00 0.00 0.00 0.00 0.00 0.00 0.00 0.00 0.00 0.00 0.00 0.00 0.00 0.00 0.00 0.00 0.00 0.00 0.00 0.00 0.00 0.00 0.00 0.00 0.00 0.00 0.00 0.00 0.00 0.00 0.00 0.00 0.00 0.00 0.00 0.00
0.00 0.00 0.00 0.00 0.00 0.00 0.00 0.00 0.00 0.00 0.00 0.00 0.00 0.00 0.00 0.00 0.00 0.00 0.00 0.00 0.00 0.00 0.00 0.00 0.00 0.00 0.00 0.00 0.00 0.00 0.00 0.00 0.00 0.00 0.00 0.00 0.00 0.00 0.00 0.00 0.00 0.00 0.00
0.00 0.00 0.00 0.00 0.00 0.00 0.00 0.00 0.00 0.00 0.00 0.00 0.00 0.00 0.00 0.00 0.00 0.00 0.00 0.00 0.00 0.00 0.00 0.00 0.00 0.00 0.00 0.00 0.00 0.00 0.00 0.00 0.00 0.00 0.00 0.00 0.00 0.00 0.00 0.00 0.00 0.00 0.00
0.00 0.00 0.00 0.00 0.00 0.00 0.00 0.00 0.00 0.00 0.00 0.00 0.00 0.00 0.00 0.00 0.00 0.00 0.00 0.00 0.00 0.00 0.00 0.00 0.00 0.00 0.00 0.00 0.00 0.00 0.00 0.00 0.00 0.00 0.00 0.00 0.00 0.00 0.00 0.00 0.00 0.00 0.00
0.00 0.00 0.00 0.00 0.00 0.00 0.00 0.00 0.00 0.00 0.00 0.00 0.00 0.00 0.00 0.00 0.00 0.00 0.00 0.00 0.00 0.00 0.00 0.00 0.00 0.00 0.00 0.00 0.00 0.00 0.00 0.00 0.00 0.00 0.00 0.00 0.00 0.00 0.00 0.00 0.00 0.00 0.00
0.00 0.00 0.00 0.00 0.00 0.00 0.00 0.00 0.00 0.00 0.00 0.00 0.00 0.00 0.00 0.00 0.00 0.00 0.00 0.00 0.00 0.00 0.00 0.00 0.00 0.00 0.00 0.00 0.00 0.00 0.00 0.00 0.00 0.00 0.00 0.00 0.00 0.00 0.00 0.00 0.00 0.00 0.00
0.00 0.00 0.00 0.00 0.00 0.00 0.00 0.00 0.00 0.00 0.00 0.00 0.00 0.00 0.00 0.00 0.00 0.00 0.00 0.00 0.00 0.00 0.00 0.00 0.00 0.00 0.00 0.00 0.00 0.00 0.00 0.00 0.00 0.00 0.00 0.00 0.00 0.00 0.00 0.00 0.00 0.00 0.00
0.00 0.00 0.00 0.00 0.00 0.00 0.00 0.00 0.00 0.00 0.00 0.00 0.00 0.00 0.00 0.00 0.00 0.00 0.00 0.00 0.00 0.00 0.00 0.00 0.00 0.00 0.00 0.00 0.00 0.00 0.00 0.00 0.00 0.00 0.00 0.00 0.00 0.00 0.00 0.00 0.00 0.00 0.00
0.00 0.00 0.00 0.00 0.00 0.00 0.00 0.00 0.00 0.00 0.00 0.00 0.00 0.00 0.00 0.00 0.00 0.00 0.00 0.00 0.00 0.00 0.00 0.00 0.00 0.00 0.00 0.00 0.00 0.00 0.00 0.00 0.00 0.00 0.00 0.00 0.00 0.00 0.00 0.00 0.00 0.00 0.00
0.00 0.00 0.00 0.00 0.00 0.00 0.00 0.00 0.00 0.00 0.00 0.00 0.00 0.00 0.00 0.00 0.00 0.00 0.00 0.00 0.00 0.00 0.00 0.00 0.00 0.00 0.00 0.00 0.00 0.00 0.00 0.00 0.00 0.00 0.00 0.00 0.00 0.00 0.00 0.00 0.00 0.00 0.00
0.00 0.00 0.00 0.00 0.00 0.00 0.00 0.00 0.00 0.00 0.00 0.00 0.00 0.00 0.00 0.00 0.00 0.00 0.00 0.00 0.00 0.00 0.00 0.00 0.00 0.00 0.00 0.00 0.00 0.00 0.00 0.00 0.00 0.00 0.00 0.00 0.00 0.00 0.00 0.00 0.00 0.00 0.00
0.00 0.00 0.00 0.00 0.00 0.00 0.00 0.00 0.00 0.00 0.00 0.00 0.00 0.00 0.00 0.00 0.00 0.00 0.00 0.00 0.00 0.00 0.00 0.00 0.00 0.00 0.00 0.00 0.00 0.00 0.00 0.00 0.00 0.00 0.00 0.00 0.00 0.00 0.00 0.00 0.00 0.00 0.00
0.00 0.00 0.00 0.00 0.00 0.00 0.00 0.00 0.00 0.00 0.00 0.00 0.00 0.00 0.00 0.00 0.00 0.00 0.00 0.00 0.00 0.00 0.00 0.00 0.00 0.00 0.00 0.00 0.00 0.00 0.00 0.00 0.00 0.00 0.00 0.00 0.00 0.00 0.00 0.00 0.00 0.00 0.00
0.00 0.00 0.00 0.00 0.00 0.00 0.00 0.00 0.00 0.00 0.00 0.00 0.00 0.00 0.00 0.00 0.00 0.00 0.00 0.00 0.00 0.00 0.00 0.00 0.00 0.00 0.00 0.00 0.00 0.00 0.00 0.00 0.00 0.00 0.00 0.00 0.00 0.00 0.00 0.00 0.00 0.00 0.00
0.00 0.00 0.00 0.00 0.00 0.00 0.00 0.00 0.00 0.00 0.00 0.00 0.00 0.00 0.00 0.00 0.00 0.00 0.00 0.00 0.00 0.00 0.00 0.00 0.00 0.00 0.00 0.00 0.00 0.00 0.00 0.00 0.00 0.00 0.00 0.00 0.00 0.00 0.00 0.00 0.00 0.00 0.00
0.00 0.00 0.00 0.00 0.00 0.00 0.00 0.00 0.00 0.00 0.00 0.00 0.00 0.00 0.00 0.00 0.00 0.00 0.00 0.00 0.00 0.00 0.00 0.00 0.00 0.00 0.00 0.00 0.00 0.00 0.00 0.00 0.00 0.00 0.00 0.00 0.00 0.00 0.00 0.00 0.00 0.00 0.00
0.00 0.00 0.00 0.00 0.00 0.00 0.00 0.00 0.00 0.00 0.00 0.00 0.00 0.00 0.00 0.00 0.00 0.00 0.00 0.00 0.00 0.00 0.00 0.00 0.00 0.00 0.00 0.00 0.00 0.00 0.00 0.00 0.00 0.00 0.00 0.00 0.00 0.00 0.00 0.00 0.00 0.00 0.00
0.00 0.00 0.00 0.00 0.00 0.00 0.00 0.00 0.00 0.00 0.00 0.00 0.00 0.00 0.00 0.00 0.00 0.00 0.00 0.00 0.00 0.00 0.00 0.00 0.00 0.00 0.00 0.00 0.00 0.00 0.00 0.00 0.00 0.00 0.00 0.00 0.00 0.00 0.00 0.00 0.00 0.00 0.00
0.00 0.00 0.00 0.00 0.00 0.00 0.00 0.00 0.00 0.00 0.00 0.00 0.00 0.00 0.00 0.00 0.00 0.00 0.00 0.00 0.00 0.00 0.00 0.00 0.00 0.00 0.00 0.00 0.00 0.00 0.00 0.00 0.00 0.00 0.00 0.00 0.00 0.00 0.00 0.00 0.00 0.00 0.00
0.00 0.00 0.00 0.00 0.00 0.00 0.00 0.00 0.00 0.00 0.00 0.00 0.00 0.00 0.00 0.00 0.00 0.00 0.00 0.00 0.00 0.00 0.00 0.00 0.00 0.00 0.00 0.00 0.00 0.00 0.00 0.00 0.00 0.00 0.00 0.00 0.00 0.00 0.00 0.00 0.00 0.00 0.00
0.00 0.00 0.00 0.00 0.00 0.00 0.00 0.00 0.00 0.00 0.00 0.00 0.00 0.00 0.00 0.00 0.00 0.00 0.00 0.00 0.00 0.00 0.00 0.00 0.00 0.00 0.00 0.00 0.00 0.00 0.00 0.00 0.00 0.00 0.00 0.00 0.00 0.00 0.00 0.00 0.00 0.00 0.00
0.00 0.00 0.00 0.00 0.00 0.00 0.00 0.00 0.00 0.00 0.00 0.00 0.00 0.00 0.00 0.00 0.00 0.00 0.00 0.00 0.00 0.00 0.00 0.00 0.00 0.00 0.00 0.00 0.00 0.00 0.00 0.00 0.00 0.00 0.00 0.00 0.00 0.00 0.00 0.00 0.00 0.00 0.00
MSLP
1020.67 1020.79 1020.81 1021.02 1021.34 1021.70 1021.85 1021.97 1022.09 1022.10 1022.12 1022.21 1022.32 1022.37 1022.41 1022.38 1022.24 1022.12 1021.91 1021.72 1021.51 1021.27 1020.99 1020.83 1020.68 1020.53 1020.22 1020.04 1019.93 1019.73 1019.50 1018.99 1018.70 1018.06 1017.32 1016.70 1016.65 1016.53 1016.28 1016.02 1015.68 1015.32 1015.00
1020.94 1020.87 1020.88 1021.02 1021.28 1021.50 1021.70 1021.86 1021.89 1021.96 1022.03 1022.17 1022.39 1022.58 1022.59 1022.53 1022.36 1022.12 1021.74 1021.52 1021.30 1021.22 1020.93 1020.83 1020.62 1020.47 1020.18 1019.92 1019.80 1019.73 1019.55 1019.31 1019.06 1018.70 1018.17 1017.34 1016.83 1016.57 1016.18 1015.95 1015.71 1015.33 1014.96
1021.03 1020.87 1020.91 1021.06 1021.35 1021.43 1021.53 1021.65 1021.70 1021.78 1021.92 1022.06 1022.30 1022.56 1022.59 1022.53 1022.21 1021.88 1021.56 1021.39 1021.24 1021.06 1020.95 1020.79 1020.61 1020.33 1020.13 1019.90 1019.72 1019.63 1019.62 1019.50 1019.13 1019.08 1018.85 1018.11 1017.55 1017.15 1016.25 1015.90 1015.69 1015.23 1014.71
1021.26 1021.10 1021.06 1021.12 1021.30 1021.31 1021.55 1021.63 1021.65 1021.68 1021.74 1021.86 1022.08 1022.31 1022.38 1022.33 1022.05 1021.87 1021.60 1021.24 1021.10 1020.97 1020.81 1020.66 1020.56 1020.37 1020.19 1019.96 1019.76 1019.56 1019.58 1019.58 1019.26 1019.15 1018.96 1019.01 1018.73 1017.88 1016.75 1016.04 1015.67 1015.26 1014.60
1021.53 1021.30 1021.14 1021.07 1021.14 1021.20 1021.26 1021.38 1021.43 1021.47 1021.53 1021.72 1021.92 1022.12 1022.10 1022.05 1021.78 1021.74 1021.47 1021.12 1020.81 1020.77 1020.65 1020.50 1020.42 1020.29 1020.16 1019.93 1019.62 1019.45 1019.51 1019.53 1019.45 1019.28 1019.05 1018.99 1018.74 1018.51 1018.11 1016.67 1015.60 1014.90 1014.34
1021.61 1021.47 1021.26 1021.08 1021.08 1021.06 1021.10 1021.15 1021.20 1021.10 1021.26 1021.42 1021.54 1021.75 1021.79 1021.68 1021.63 1021.49 1021.26 1020.89 1020.61 1020.35 1020.30 1020.24 1020.12 1020.04 1020.00 1019.77 1019.49 1019.42 1019.39 1019.42 1019.35 1019.20 1019.02 1018.92 1018.65 1018.28 1018.07 1017.29 1016.47 1015.54 1014.50
1021.85 1021.65 1021.48 1021.24 1021.14 1021.07 1020.98 1020.94 1020.94 1020.73 1020.97 1021.11 1021.21 1021.25 1021.32 1021.29 1021.23 1021.27 1021.15 1020.84 1020.36 1020.09 1019.96 1020.03 1019.89 1019.68 1019.70 1019.64 1019.49 1019.33 1019.24 1019.34 1019.26 1019.09 1018.78 1018.66 1018.48 1018.30 1017.96 1017.51 1016.78 1015.98 1014.94
1022.00 1021.76 1021.61 1021.40 1021.19 1021.03 1020.83 1020.78 1020.73 1020.57 1020.63 1020.71 1020.68 1020.72 1020.77 1020.77 1020.70 1020.69 1020.77 1020.71 1020.39 1020.06 1019.79 1019.80 1019.68 1019.49 1019.58 1019.54 1019.30 1019.06 1019.11 1019.16 1019.17 1019.10 1018.81 1018.52 1018.25 1018.10 1017.78 1017.34 1016.93 1016.15 1015.51
1022.22 1021.92 1021.58 1021.38 1021.13 1020.87 1020.72 1020.67 1020.57 1020.39 1020.31 1020.22 1020.15 1020.16 1020.18 1020.26 1020.28 1020.20 1020.24 1020.12 1020.08 1020.06 1019.87 1019.70 1019.59 1019.45 1019.36 1019.32 1019.11 1018.94 1018.89 1018.88 1018.91 1018.94 1018.78 1018.49 1018.13 1017.94 1017.63 1017.33 1016.97 1016.56 1015.86
1022.36 1021.96 1021.70 1021.38 1021.06 1020.85 1020.60 1020.40 1020.37 1020.15 1019.85 1019.82 1019.76 1019.64 1019.66 1019.73 1019.72 1019.80 1019.80 1019.78 1019.59 1019.59 1019.54 1019.39 1019.35 1019.29 1019.09 1019.07 1018.93 1018.86 1018.67 1018.57 1018.53 1018.63 1018.52 1018.31 1018.06 1017.80 1017.47 1017.18 1016.89 1016.58 1016.23
1022.74 1022.40 1021.99 1021.62 1021.36 1021.06 1020.76 1020.50 1020.18 1019.92 1019.62 1019.49 1019.32 1019.25 1019.13 1019.22 1019.24 1019.27 1019.26 1019.29 1019.23 1019.14 1019.18 1019.10 1019.08 1019.03 1018.87 1018.84 1018.74 1018.74 1018.60 1018.34 1018.24 1018.20 1018.15 1018.06 1017.90 1017.51 1017.23 1017.10 1016.85 1016.54 1016.37
1022.89 1022.67 1022.30 1021.84 1021.47 1021.21 1020.75 1020.40 1020.05 1019.79 1019.55 1019.30 1019.12 1018.92 1018.87 1018.84 1018.85 1018.75 1018.69 1018.76 1018.67 1018.61 1018.61 1018.74 1018.74 1018.68 1018.67 1018.65 1018.57 1018.54 1018.40 1018.28 1018.12 1017.78 1017.73 1017.59 1017.36 1017.09 1016.86 1016.77 1016.62 1016.54 1016.39
1022.79 1022.54 1022.16 1022.01 1021.64 1021.25 1020.87 1020.53 1020.17 1019.85 1019.51 1019.12 1018.77 1018.51 1018.45 1018.42 1018.28 1018.18 1018.18 1018.24 1018.17 1018.08 1018.17 1018.27 1018.32 1018.30 1018.37 1018.38 1018.36 1018.25 1018.14 1018.06 1017.89 1017.60 1017.41 1017.17 1016.97 1016.68 1016.52 1016.43 1016.18 1016.01 1015.95
1022.77 1022.67 1022.36 1022.07 1021.69 1021.40 1021.10 1020.68 1020.12 1019.78 1019.48 1019.06 1018.74 1018.39 1018.14 1017.97 1017.81 1017.71 1017.64 1017.61 1017.61 1017.65 1017.66 1017.67 1017.78 1017.88 1017.93 1017.99 1017.95 1017.82 1017.74 1017.70 1017.56 1017.42 1017.29 1017.07 1016.79 1016.50 1016.33 1016.17 1015.96 1015.84 1015.73
1022.90 1022.82 1022.62 1022.26 1021.90 1021.49 1021.03 1020.71 1020.24 1019.71 1019.44 1018.97 1018.57 1018.12 1017.88 1017.60 1017.32 1017.21 1017.14 1017.05 1016.99 1016.95 1017.04 1017.11 1017.08 1017.14 1017.29 1017.28 1017.27 1017.26 1017.21 1017.22 1017.12 1017.00 1016.90 1016.77 1016.62 1016.46 1016.31 1016.20 1015.92 1015.87 1015.70
1023.24 1023.05 1022.77 1022.43 1022.12 1021.74 1021.27 1020.89 1020.35 1019.79 1019.39 1018.79 1018.24 1017.76 1017.42 1017.14 1016.89 1016.69 1016.62 1016.61 1016.58 1016.58 1016.67 1016.63 1016.60 1016.54 1016.50 1016.43 1016.46 1016.51 1016.53 1016.59 1016.56 1016.44 1016.34 1016.29 1016.23 1016.08 1015.97 1015.90 1015.82 1015.83 1015.58
1023.49 1023.23 1022.97 1022.68 1022.24 1021.75 1021.35 1020.82 1020.25 1019.64 1019.09 1018.64 1018.06 1017.52 1017.14 1016.78 1016.56 1016.50 1016.42 1016.30 1016.20 1016.27 1016.18 1016.11 1016.13 1015.93 1015.74 1015.76 1015.81 1015.81 1015.79 1015.85 1015.83 1015.84 1015.84 1015.75 1015.69 1015.67 1015.57 1015.52 1015.44 1015.38 1015.34
1023.48 1023.30 1023.02 1022.53 1022.07 1021.71 1021.22 1020.71 1020.15 1019.61 1019.14 1018.58 1018.07 1017.52 1017.07 1016.57 1016.30 1016.30 1016.07 1015.91 1015.93 1015.91 1015.83 1015.71 1015.66 1015.54 1015.17 1015.18 1015.18 1015.17 1015.15 1015.09 1015.03 1015.08 1015.15 1015.25 1015.19 1015.18 1015.22 1015.20 1015.06 1014.98 1014.95
1023.40 1023.14 1022.92 1022.57 1022.06 1021.68 1021.22 1020.87 1020.30 1019.78 1019.19 1018.60 1018.05 1017.50 1017.17 1016.68 1016.29 1016.01 1015.82 1015.70 1015.67 1015.44 1015.20 1015.12 1015.08 1015.07 1014.70 1014.60 1014.54 1014.63 1014.59 1014.52 1014.34 1014.35 1014.39 1014.48 1014.43 1014.33 1014.48 1014.56 1014.45 1014.41 1014.38
1023.27 1023.10 1022.80 1022.53 1022.15 1021.65 1021.27 1020.81 1020.20 1019.73 1019.14 1018.59 1018.06 1017.47 1017.05 1016.69 1016.34 1016.07 1015.80 1015.49 1015.20 1014.89 1014.78 1014.65 1014.56 1014.38 1014.14 1013.92 1013.93 1013.98 1013.95 1013.86 1013.67 1013.63 1013.58 1013.59 1013.58 1013.55 1013.70 1013.80 1013.79 1013.76 1013.60
1023.01 1022.92 1022.78 1022.56 1022.09 1021.60 1021.24 1020.70 1020.14 1019.65 1019.12 1018.56 1017.99 1017.43 1016.92 1016.58 1016.21 1015.88 1015.55 1015.31 1015.07 1014.94 1014.65 1014.31 1013.85 1013.67 1013.48 1013.23 1013.23 1013.27 1013.28 1013.23 1013.16 1013.07 1012.86 1012.76 1012.77 1012.81 1012.86 1012.95 1013.02 1012.91 1013.18
1023.09 1022.90 1022.71 1022.36 1021.83 1021.41 1021.14 1020.67 1020.08 1019.41 1019.00 1018.51 1017.94 1017.31 1016.80 1016.42 1015.97 1015.67 1015.21 1014.96 1014.75 1014.47 1014.12 1013.84 1013.45 1013.13 1012.90 1012.76 1012.53 1012.32 1012.24 1012.27 1012.41 1012.19 1012.05 1012.00 1012.15 1012.16 1012.10 1012.15 1012.12 1012.46 1012.84
1022.92 1022.73 1022.57 1022.22 1021.81 1021.41 1021.09 1020.63 1019.79 1019.34 1018.88 1018.37 1017.76 1017.19 1016.73 1016.26 1015.83 1015.44 1015.00 1014.73 1014.45 1014.18 1013.78 1013.57 1013.07 1012.50 1012.20 1012.08 1011.94 1011.78 1011.67 1011.65 1011.64 1011.57 1011.40 1011.39 1011.41 1011.43 1011.41 1011.36 1011.51 1011.79 1012.05
1022.67 1022.42 1022.16 1021.77 1021.28 1020.89 1020.54 1020.27 1019.71 1019.24 1018.92 1018.38 1017.62 1016.98 1016.50 1015.90 1015.51 1015.23 1014.99 1014.68 1014.32 1013.84 1013.45 1013.11 1012.69 1012.32 1011.97 1011.62 1011.39 1011.25 1011.14 1011.03 1010.98 1010.80 1010.76 1010.77 1010.78 1010.84 1010.78 1010.86 1010.99 1011.12 1011.39
1022.50 1022.26 1022.07 1021.75 1021.21 1020.67 1020.24 1019.82 1019.40 1019.03 1018.59 1018.04 1017.43 1016.85 1016.35 1015.82 1015.33 1014.92 1014.64 1014.15 1013.73 1013.53 1013.11 1012.73 1012.47 1012.18 1011.62 1011.26 1011.06 1010.89 1010.74 1010.62 1010.46 1010.32 1010.49 1010.45 1010.34 1010.26 1010.22 1010.23 1010.30 1010.50 1010.77
1022.29 1022.09 1021.92 1021.62 1021.11 1020.60 1019.99 1019.41 1019.13 1018.85 1018.45 1017.78 1017.13 1016.70 1016.20 1015.70 1015.32 1014.82 1014.11 1013.73 1013.31 1012.94 1012.59 1012.25 1012.00 1011.60 1011.30 1010.90 1010.56 1010.29 1010.15 1010.05 1009.95 1009.90 1009.97 1009.84 1009.82 1009.75 1009.67 1009.66 1009.67 1009.76 1009.85
Thickness
5672 5672 5673 5671 5668 5665 5664 5662 5659 5656 5653 5650 5647 5645 5643 5640 5638 5636 5634 5631 5628 5626 5625 5622 5620 5618 5619 5617 5615 5615 5614 5616 5615 5618 5624 5626 5623 5622 5622 5623 5623 5623 5622
5665 5667 5668 5666 5663 5662 5659 5656 5654 5650 5647 5643 5640 5636 5633 5630 5628 5625 5624 5621 5619 5616 5615 5614 5612 5611 5611 5610 5608 5606 5605 5607 5608 5609 5608 5614 5616 5615 5617 5617 5616 5616 5614
5659 5661 5661 5660 5656 5655 5653 5650 5647 5643 5640 5636 5632 5628 5624 5621 5619 5617 5615 5611 5609 5608 5606 5605 5603 5603 5602 5602 5601 5600 5599 5599 5602 5600 5600 5605 5605 5604 5610 5610 5607 5608 5607
5652 5654 5655 5654 5650 5649 5644 5641 5638 5636 5633 5629 5625 5619 5615 5612 5608 5605 5603 5603 5600 5599 5598 5596 5594 5593 5593 5594 5594 5595 5594 5592 5594 5593 5593 5590 5590 5595 5602 5603 5602 5601 5599
5643 5646 5647 5645 5644 5641 5637 5634 5631 5629 5625 5619 5614 5609 5605 5601 5599 5596 5594 5593 5591 5590 5589 5588 5587 5586 5586 5587 5589 5589 5588 5586 5585 5584 5585 5583 5583 5583 5582 5591 5596 5596 5594
5636 5637 5636 5637 5636 5632 5629 5627 5624 5622 5617 5611 5606 5600 5596 5594 5590 5588 5585 5584 5583 5582 5581 5581 5581 5581 5581 5583 5584 5583 5582 5581 5580 5580 5580 5578 5578 5579 5577 5581 5582 5585 5587
5626 5626 5627 5627 5626 5624 5622 5619 5616 5614 5609 5603 5598 5595 5590 5586 5583 5578 5575 5572 5574 5575 5575 5574 5577 5578 5578 5578 5578 5579 5578 5576 5576 5576 5577 5575 5574 5573 5572 5572 5573 5576 5578
5614 5615 5616 5615 5614 5613 5612 5609 5607 5604 5601 5596 5593 5588 5584 5580 5577 5573 5567 5564 5566 5568 5569 5570 5572 5575 5574 5574 5575 5576 5575 5573 5572 5570 5570 5570 5570 5569 5568 5568 5568 5569 5569
5603 5605 5606 5604 5604 5605 5604 5601 5599 5596 5593 5590 5586 5583 5580 5575 5572 5568 5564 5563 5563 5563 5565 5568 5569 5570 5571 5572 5572 5573 5573 5571 5569 5566 5564 5564 5564 5564 5563 5563 5562 5561 5561
5594 5595 5595 5595 5596 5595 5594 5592 5589 5587 5586 5584 5582 5580 5577 5572 5568 5565 5563 5562 5562 5562 5564 5567 5568 5569 5570 5570 5570 5570 5570 5570 5568 5564 5562 5560 5559 5559 5559 5558 5557 5555 5552
5579 5580 5583 5584 5583 5583 5583 5581 5581 5581 5581 5580 5579 5576 5574 5570 5567 5565 5563 5562 5562 5563 5564 5566 5567 5567 5568 5568 5568 5566 5566 5567 5566 5564 5561 5558 5556 5557 5557 5554 5552 5551 5547
5567 5569 5570 5572 5573 5572 5574 5575 5576 5575 5575 5574 5573 5572 5570 5568 5565 5565 5563 5561 5562 5563 5564 5564 5565 5565 5565 5565 5564 5563 5563 5563 5562 5563 5560 5558 5557 5556 5555 5553 5550 5547 5544
5560 5560 5562 5561 5562 5565 5566 5567 5568 5567 5568 5568 5568 5568 5567 5565 5565 5564 5562 5561 5561 5562 5562 5562 5562 5562 5562 5561 5561 5560 5560 5559 5559 5559 5558 5557 5556 5555 5553 5550 5549 5548 5544
5551 5550 5553 5554 5555 5556 5557 5558 5560 5560 5560 5560 5560 5560 5562 5562 5562 5561 5561 5561 5561 5560 5560 5560 5560 5559 5559 5557 5557 5557 5557 5556 5555 5554 5552 5552 5552 5551 5550 5548 5546 5544 5542
5544 5542 5543 5545 5547 5549 5550 5550 5551 5553 5553 5554 5555 5556 5555 5556 5558 5558 5559 5559 5558 5558 5558 5557 5558 5557 5555 5555 5555 5554 5554 5552 5551 5550 5549 5547 5546 5545 5543 5541 5541 5537 5536
5534 5534 5535 5536 5537 5539 5541 5541 5543 5545 5547 5548 5550 5551 5549 5549 5552 5553 5554 5554 5553 5553 5553 5553 5553 5554 5554 5553 5553 5552 5551 5549 5548 5547 5546 5544 5542 5541 5539 5537 5534 5531 5531
5523 5523 5524 5525 5527 5530 5532 5533 5536 5539 5541 5542 5544 5544 5544 5543 5544 5545 5546 5547 5547 5546 5546 5547 5548 5549 5550 5549 5549 5548 5548 5546 5544 5543 5541 5539 5538 5535 5534 5531 5530 5528 5525
5514 5515 5516 5519 5521 5523 5524 5526 5529 5531 5533 5534 5535 5536 5538 5539 5539 5538 5539 5540 5539 5537 5538 5539 5540 5542 5544 5543 5544 5543 5544 5542 5541 5539 5537 5534 5531 5529 5528 5525 5523 5522 5519
5506 5506 5507 5509 5512 5514 5516 5516 5518 5520 5523 5526 5527 5528 5529 5531 5532 5532 5532 5531 5530 5530 5532 5534 5535 5535 5537 5536 5537 5536 5537 5537 5536 5533 5532 5529 5527 5525 5522 5520 5517 5515 5512
5498 5498 5499 5500 5501 5505 5505 5507 5510 5511 5513 5515 5517 5519 5521 5522 5522 5523 5523 5524 5525 5526 5525 5526 5527 5528 5531 5529 5529 5529 5530 5530 5529 5528 5526 5523 5522 5520 5517 5515 5511 5509 5506
5488 5489 5488 5489 5491 5494 5495 5497 5499 5501 5503 5505 5507 5510 5512 5513 5514 5515 5514 5515 5515 5515 5515 5518 5521 5522 5522 5522 5521 5520 5521 5520 5521 5520 5518 5515 5514 5514 5511 5507 5504 5502 5497
5476 5477 5476 5477 5481 5483 5483 5486 5488 5492 5493 5495 5498 5500 5502 5503 5505 5506 5507 5506 5506 5507 5508 5509 5511 5512 5512 5513 5513 5514 5514 5513 5511 5512 5509 5506 5503 5502 5501 5498 5495 5490 5486
5465 5466 5465 5466 5466 5466 5468 5473 5479 5480 5481 5483 5487 5489 5490 5492 5494 5495 5497 5497 5497 5497 5499 5498 5501 5504 5502 5502 5502 5503 5502 5501 5500 5500 5498 5496 5493 5490 5489 5486 5483 5479 5475
5454 5454 5454 5456 5458 5459 5458 5460 5465 5467 5467 5469 5473 5476 5477 5481 5481 5481 5482 5482 5484 5486 5487 5488 5489 5490 5490 5490 5490 5489 5487 5487 5486 5486 5485 5482 5480 5477 5475 5472 5469 5467 5462
5442 5442 5442 5442 5445 5448 5448 5448 5449 5451 5454 5456 5459 5462 5464 5466 5468 5467 5468 5469 5470 5471 5472 5473 5473 5474 5476 5477 5476 5475 5473 5471 5470 5470 5465 5464 5462 5461 5459 5457 5455 5452 5448
5429 5429 5428 5428 5430 5431 5433 5436 5436 5435 5436 5440 5444 5445 5447 5448 5448 5451 5453 5454 5457 5457 5458 5458 5458 5458 5458 5459 5460 5460 5459 5457 5456 5454 5450 5449 5446 5445 5444 5442 5440 5437 5435